Regional Weather Roundup
Issued by NWS

Home | Current Version | Previous Version | Graphics & Text | Print | Product List | Glossary On
Versions: 1 2 3 4 5 6 7 8 9 10 11 12 13 14 15 16 17 18 19 20 21 22 23 24 25 26 27 28 29 30 31 32 33 34 35 36 37 38 39 40 41 42 43 44 45 46 47 48 49 50
000
ASUS45 KCYS 262310
RWRWY

WYOMING REGIONAL WEATHER ROUNDUP
NATIONAL WEATHER SERVICE CHEYENNE WY
500 PM MDT SUN MAR 26 2017

NOTE:  "FAIR" INDICATES FEW OR NO CLOUDS BELOW 12,000 FEET
WITH NO SIGNIFICANT WEATHER AND/OR OBSTRUCTIONS TO VISIBILITY.

WYZ001-270000-
YELLOWSTONE NATIONAL PARK

CITY           SKY/WX    TMP DP  RH WIND       PRES   REMARKS
LK YELLOWSTONE   N/A     36  16  44 W8        29.95S WCI  30
W YELLOWSTONE  NOT AVBL

$$
WYZ002>013-054>058-071-098>099-270000-
NORTHERN WYOMING

CITY           SKY/WX    TMP DP  RH WIND       PRES   REMARKS
JACKSON        FAIR      43  19  39 S16G23    29.95S
CODY           FAIR      55  19  24 S12       29.84F
GREYBULL       FAIR      56  24  29 SE10G21   29.84F
WORLAND        FAIR      56  26  31 E5        29.85F
SHERIDAN       FAIR      56  25  30 S7        29.86F
BUFFALO        FAIR      54  26  34 SE7       29.89F
GILLETTE       PTSUNNY   52  31  44 E7        29.90F
HULETT         CLOUDY    50  34  53 CALM      29.93S
NEWCASTLE      CLOUDY    46  34  61 N13G22    29.93S

$$
WYZ014>020-022>026-101>103-270000-
CENTRAL WYOMING

CITY           SKY/WX    TMP DP  RH WIND       PRES   REMARKS
BIG PINEY      FAIR      43  18  36 S3        29.96F
PINEDALE       FAIR      39  18  41 N3        29.98S
DUBOIS         FAIR      43  14  31 W16       29.90S
LANDER         FAIR      52  21  29 CALM      29.84F
RIVERTON       FAIR      53  24  32 SE12      29.87F
CASPER         FAIR      50  32  50 CALM      29.91F
DOUGLAS        FAIR      51  31  46 VRB5      29.92F

$$
WYZ021-027>030-104>119-270000-
SOUTHERN WYOMING

CITY           SKY/WX    TMP DP  RH WIND       PRES   REMARKS
EVANSTON       FAIR      42  20  41 W8        29.98F
KEMMERER         N/A     37  23  56 NW9       29.98F WCI  31
FORT BRIDGER   FAIR      45  24  43 W5G17     30.00F
ROCK SPRINGS   FAIR      47  21  35 W12       29.96F
DIXON            N/A     52  20  28 SW8       29.98F
RAWLINS        FAIR      47  21  35 W12G20    29.94F
SARATOGA       MOCLDY    46  21  36 W15G24    29.96S
LARAMIE        CLOUDY    43  27  53 NW16      29.93S
CHEYENNE       FAIR      45  33  63 N13G23    29.92S
TORRINGTON     FAIR      49  35  58 N12       29.92F
PINE BLUFFS    MOCLDY    46  34  61 N14G23    29.94S

$$



USA.gov is the U.S. government's official web portal to all federal, state and local government web resources and services.